Regional Weather Roundup
Issued by NWS

Home | Current Version | Previous Version | Graphics & Text | Print | Product List | Glossary On
Versions: 1 2 3 4 5 6 7 8 9 10 11 12 13 14 15 16 17 18 19 20 21 22 23 24 25 26 27 28 29 30 31 32 33 34 35 36 37 38 39 40 41 42 43 44 45 46 47 48 49 50
892
ASUS43 KOAX 012310
RWRNE

WEATHER ROUNDUP FOR NEBRASKA
NATIONAL WEATHER SERVICE OMAHA NE
600 PM CDT SUN MAY 01 2016

NOTES: SATELLITE DATA IS BEING USED TO AUGMENT CLOUD COVER ABOVE
       12000 FEET.
       "FAIR" INDICATES FEW OR NO CLOUDS BELOW 12,000 FEET WITH NO
       SIGNIFICANT WEATHER AND/OR OBSTRUCTIONS TO VISIBILITY.

  * THESE STATIONS DO NOT REPORT WEATHER SUCH AS RAIN...SNOW OR FOG.

NEZ001>004-019>022-054>056-020000-
NEBRASKA PANHANDLE

CITY           SKY/WX    TMP DP  RH WIND       PRES   REMARKS
SCOTTSBLUFF    PTSUNNY   54  30  40 N14G21    30.24F
ALLIANCE       SUNNY     45  34  65 W6        30.21F
CHADRON        SUNNY     56  30  37 NE15      30.21F
KIMBALL        SUNNY     42  29  59 NW7       30.25S
SIDNEY         SUNNY     45  28  51 NE10      30.24F
$$

NEZ057>060-069>072-079>082-020000-
SOUTHWEST NEBRASKA

CITY           SKY/WX    TMP DP  RH WIND       PRES   REMARKS
NORTH PLATTE   CLOUDY    54  33  45 N9        30.18F
IMPERIAL       PTSUNNY   49  32  52 N18G25    30.22R
LEXINGTON      PTSUNNY   53  39  60 NE12      30.17S
MCCOOK         CLOUDY    53  35  50 NE8       30.19R
OGALLALA       MOSUNNY   49  31  48 N13       30.22F
$$

NEZ005>010-023>029-035>040-094-020000-
NORTH CENTRAL NEBRASKA

CITY           SKY/WX    TMP DP  RH WIND       PRES   REMARKS
VALENTINE      MOSUNNY   55  30  38 N15       30.19F
AINSWORTH      MOSUNNY   55  32  42 N21G26    30.18F
BROKEN BOW     PTSUNNY   54  35  48 N16G23    30.16S
O`NEILL        PTSUNNY   56  35  44 N13G20    30.17F
ORD            PTSUNNY   54  39  57 N14       30.15S
THEDFORD       PTSUNNY   55  33  42 N14G20    30.19S
$$

NEZ041-046>049-061>064-073>077-083>087-020000-
SOUTH CENTRAL NEBRASKA

CITY           SKY/WX    TMP DP  RH WIND       PRES   REMARKS
GRAND ISLAND   CLOUDY    50  39  66 N16       30.16S
AURORA         CLOUDY    48  43  84 N14       30.16R
HASTINGS       CLOUDY    49  40  71 NE14      30.16R
HEBRON         CLOUDY    47  42  80 NE10      30.16S
HOLDREGE       CLOUDY    49  39  70 NE10      30.18R
KEARNEY *      CLOUDY    48  37  66 NE18      30.17S
YORK           CLOUDY    48  43  81 N15G21    30.14R
$$

NEZ011>018-030>034-042>045-020000-
NORTHEAST NEBRASKA

CITY           SKY/WX    TMP DP  RH WIND       PRES   REMARKS
NORFOLK        CLOUDY    53  41  63 N12       30.13F
ALBION         CLOUDY    50  41  70 N7        30.15S
BLAIR          CLOUDY    49  43  79 N12G21    30.11R
COLUMBUS *     CLOUDY    52  37  58 N16       30.15S
FREMONT        CLOUDY    50  42  72 N10G16    30.13F
TEKAMAH        CLOUDY    51  44  77 N17       30.12S
WAYNE          CLOUDY    52  43  71 N13       30.15S
$$

NEZ050>053-065>068-078-088>093-020000-
SOUTHEAST NEBRASKA

CITY           SKY/WX    TMP DP  RH WIND       PRES   REMARKS
LINCOLN        CLOUDY    49  41  74 NE13      30.14F
OMAHA EPPLEY   PTSUNNY   49  43  80 N8        30.11S
BEATRICE       CLOUDY    47  42  83 N9        30.15R
FALLS CITY     CLOUDY    50  43  77 N12       30.09R
NEBRASKA CITY  CLOUDY    48  43  84 N8        30.12R
PLATTSMOUTH    CLOUDY    47  42  81 N7        30.11S
$$

NEZ044-045-051>053-067-020000-
OMAHA AREA

CITY           SKY/WX    TMP DP  RH WIND       PRES   REMARKS
OMAHA EPPLEY   PTSUNNY   49  43  80 N8        30.11S
BLAIR          CLOUDY    49  43  79 N12G21    30.11R
FREMONT        CLOUDY    50  42  72 N10G16    30.13F
MILLARD        CLOUDY    49  42  76 N7        30.12S
OFFUTT AFB     CLOUDY    49  43  81 N7        30.10S
PLATTSMOUTH    CLOUDY    47  42  81 N7        30.11S
WAHOO          CLOUDY    50  43  77 N15       30.13S
$$




USA.gov is the U.S. government's official web portal to all federal, state and local government web resources and services.